| time (UTC) | temp F | wind direction | speed MPH | gust MPH | rain 1hr in | rain 24hr in | rain mn in | humidity % | barometer mb |
| 20260902045641 | 64 | 182 | 1.0 | 1.0 | 0.00 | 0.00 | 0.00 | 92 | 1023.4 |
| 20260902045138 | 64 | 187 | 0.0 | 0.0 | 0.00 | 0.00 | 0.00 | 92 | 1023.2 |
| 20260902044637 | 64 | 144 | 0.0 | 0.0 | 0.00 | 0.00 | 0.00 | 92 | 1023.3 |
| 20260902044134 | 64 | 176 | 0.0 | 1.0 | 0.00 | 0.00 | 0.00 | 92 | 1023.2 |
| 20260902043629 | 64 | 104 | 1.0 | 2.0 | 0.00 | 0.00 | 0.00 | 91 | 1023.3 |
| 20260902043124 | 65 | 96 | 1.0 | 1.0 | 0.00 | 0.00 | 0.00 | 91 | 1023.2 |
| 20260902042623 | 65 | 145 | 1.0 | 2.0 | 0.00 | 0.00 | 0.00 | 91 | 1023.1 |
| 20260902042119 | 65 | 318 | 2.0 | 3.0 | 0.00 | 0.00 | 0.00 | 91 | 1023.3 |
| 20260902041618 | 65 | 70 | 1.0 | 2.0 | 0.00 | 0.00 | 0.00 | 91 | 1023.1 |
| 20260902041113 | 65 | 145 | 0.0 | 1.0 | 0.00 | 0.00 | 0.00 | 91 | 1023.0 |
| 20260902040607 | 65 | 145 | 2.0 | 2.0 | 0.00 | 0.00 | 0.00 | 91 | 1022.8 |
| 20260902035600 | 65 | 107 | 3.0 | 4.0 | 0.00 | 1.01 | 1.01 | 91 | 1022.8 |
| 20260902035056 | 65 | 110 | 2.0 | 3.0 | 0.00 | 1.01 | 1.01 | 91 | 1022.9 |
| 20260902034555 | 65 | 182 | 0.0 | 1.0 | 0.00 | 1.01 | 1.01 | 90 | 1022.9 |
| 20260902034054 | 65 | 63 | 2.0 | 4.0 | 0.00 | 1.01 | 1.01 | 90 | 1022.8 |
| 20260902033554 | 65 | 140 | 1.0 | 1.0 | 0.00 | 1.01 | 1.01 | 90 | 1022.4 |
| 20260902033049 | 65 | 147 | 3.0 | 3.0 | 0.00 | 1.01 | 1.01 | 90 | 1022.8 |
| 20260902032548 | 65 | 180 | 0.0 | 0.0 | 0.00 | 1.01 | 1.01 | 90 | 1022.4 |
| 20260902032043 | 65 | 87 | 2.0 | 2.0 | 0.00 | 1.01 | 1.01 | 90 | 1022.4 |
| 20260902031537 | 66 | 208 | 1.0 | 1.0 | 0.00 | 1.01 | 1.01 | 90 | 1022.2 |
| 20260902031034 | 66 | 136 | 3.0 | 4.0 | 0.00 | 1.01 | 1.01 | 90 | 1022.2 |
| 20260902030534 | 65 | 130 | 1.0 | 2.0 | 0.00 | 1.01 | 1.01 | 90 | 1022.0 |
| 20260902030034 | 65 | 75 | 3.0 | 3.0 | 0.00 | 1.01 | 1.01 | 89 | 1022.2 |
| 20260902025528 | 65 | 64 | 4.0 | 4.0 | 0.00 | 1.01 | 1.01 | 89 | 1022.1 |
| 20260902025024 | 66 | 100 | 2.0 | 3.0 | 0.00 | 1.01 | 1.01 | 89 | 1022.4 |
| 20260902024519 | 66 | 68 | 2.0 | 2.0 | 0.00 | 1.01 | 1.01 | 89 | 1022.7 |
| 20260902024013 | 66 | 143 | 5.0 | 6.0 | 0.00 | 1.01 | 1.01 | 89 | 1022.8 |
| 20260902023509 | 66 | 87 | 2.0 | 3.0 | 0.00 | 1.01 | 1.01 | 89 | 1022.7 |
| 20260902023004 | 66 | 202 | 3.0 | 4.0 | 0.00 | 1.01 | 1.01 | 89 | 1022.2 |
| 20260902022458 | 66 | 198 | 2.0 | 2.0 | 0.00 | 1.01 | 1.01 | 89 | 1022.3 |
| 20260902021954 | 66 | 120 | 2.0 | 4.0 | 0.00 | 1.01 | 1.01 | 89 | 1022.3 |
| 20260902021449 | 66 | 86 | 2.0 | 4.0 | 0.00 | 1.01 | 1.01 | 89 | 1022.2 |
| 20260902020944 | 66 | 108 | 2.0 | 2.0 | 0.00 | 1.01 | 1.01 | 89 | 1022.0 |
| 20260902020440 | 66 | 160 | 1.0 | 1.0 | 0.00 | 1.01 | 1.01 | 89 | 1022.0 |
| 20260902015936 | 66 | 119 | 1.0 | 1.0 | 0.00 | 1.01 | 1.01 | 88 | 1021.9 |
| 20260902015431 | 66 | 113 | 1.0 | 2.0 | 0.00 | 1.01 | 1.01 | 88 | 1021.8 |
| 20260902014926 | 66 | 87 | 4.0 | 4.0 | 0.00 | 1.01 | 1.01 | 88 | 1021.6 |
| 20260902014423 | 66 | 88 | 3.0 | 4.0 | 0.00 | 1.01 | 1.01 | 88 | 1021.6 |
| 20260902013922 | 66 | 139 | 2.0 | 3.0 | 0.00 | 1.01 | 1.01 | 88 | 1021.3 |
| 20260902013418 | 66 | 134 | 4.0 | 4.0 | 0.00 | 1.01 | 1.01 | 88 | 1021.4 |
| 20260902012913 | 67 | 116 | 7.0 | 11.0 | 0.00 | 1.01 | 1.01 | 87 | 1021.5 |
| 20260902012408 | 67 | 79 | 2.0 | 3.0 | 0.00 | 1.01 | 1.01 | 87 | 1021.2 |
| 20260902011904 | 67 | 99 | 0.0 | 1.0 | 0.00 | 1.01 | 1.01 | 87 | 1021.4 |
| 20260902011359 | 67 | 99 | 3.0 | 4.0 | 0.00 | 1.01 | 1.01 | 87 | 1021.3 |
| 20260902010853 | 67 | 133 | 3.0 | 4.0 | 0.00 | 1.01 | 1.01 | 87 | 1020.9 |
| 20260902010347 | 67 | 201 | 3.0 | 4.0 | 0.00 | 1.01 | 1.01 | 87 | 1020.8 |
| 20260902005846 | 67 | 145 | 2.0 | 3.0 | 0.00 | 1.01 | 1.01 | 87 | 1020.9 |
| 20260902005341 | 67 | 158 | 3.0 | 6.0 | 0.00 | 1.01 | 1.01 | 87 | 1020.8 |
| 20260902004836 | 68 | 110 | 7.0 | 9.0 | 0.00 | 1.01 | 1.01 | 87 | 1020.9 |
| 20260902004331 | 68 | 65 | 0.0 | 0.0 | 0.00 | 1.01 | 1.01 | 87 | 1020.8 |
| 20260902003826 | 68 | 89 | 8.0 | 11.0 | 0.00 | 1.01 | 1.01 | 87 | 1020.8 |
| 20260902003321 | 68 | 83 | 7.0 | 8.0 | 0.00 | 1.01 | 1.01 | 87 | 1020.5 |
| 20260902002817 | 68 | 95 | 2.0 | 3.0 | 0.00 | 1.01 | 1.01 | 87 | 1020.6 |
| 20260902002316 | 68 | 116 | 1.0 | 2.0 | 0.00 | 1.01 | 1.01 | 87 | 1020.3 |
| 20260902001812 | 68 | 154 | 2.0 | 2.0 | 0.00 | 1.01 | 1.01 | 87 | 1020.3 |
| 20260902001307 | 68 | 104 | 2.0 | 2.0 | 0.00 | 1.01 | 1.01 | 87 | 1020.2 |
| 20260902000806 | 68 | 120 | 2.0 | 3.0 | 0.00 | 1.01 | 1.01 | 87 | 1020.5 |
| 20260902000301 | 68 | 128 | 5.0 | 14.0 | 0.00 | 1.01 | 1.01 | 87 | 1020.5 |
| 20260901235756 | 69 | 91 | 3.0 | 4.0 | 0.00 | 1.01 | 1.01 | 87 | 1020.6 |
| 20260901235251 | 69 | 81 | 3.0 | 6.0 | 0.00 | 1.01 | 1.01 | 87 | 1020.3 |
| 20260901234750 | 69 | 133 | 3.0 | 6.0 | 0.00 | 1.01 | 1.01 | 87 | 1020.3 |
| 20260901234239 | 69 | 72 | 1.0 | 1.0 | 0.00 | 1.01 | 1.01 | 87 | 1020.4 |
| 20260901233734 | 69 | 118 | 5.0 | 7.0 | 0.00 | 1.01 | 1.01 | 87 | 1020.3 |
| 20260901233230 | 69 | 143 | 6.0 | 10.0 | 0.00 | 1.01 | 1.01 | 87 | 1020.3 |
| 20260901232725 | 70 | 148 | 2.0 | 2.0 | 0.00 | 1.01 | 1.01 | 88 | 1020.4 |
| 20260901232220 | 70 | 97 | 3.0 | 4.0 | 0.00 | 1.01 | 1.01 | 88 | 1020.2 |
| 20260901231717 | 70 | 131 | 4.0 | 4.0 | 0.00 | 1.01 | 1.01 | 88 | 1020.1 |
| 20260901231213 | 70 | 112 | 2.0 | 2.0 | 0.00 | 1.01 | 1.01 | 89 | 1020.1 |
| 20260901230708 | 70 | 79 | 4.0 | 4.0 | 0.00 | 1.01 | 1.01 | 89 | 1020.0 |
| 20260901230207 | 70 | 90 | 2.0 | 4.0 | 0.00 | 1.01 | 1.01 | 89 | 1019.9 |
| 20260901225702 | 70 | 106 | 7.0 | 9.0 | 0.00 | 1.01 | 1.01 | 90 | 1019.9 |
| 20260901225156 | 71 | 67 | 4.0 | 6.0 | 0.00 | 1.01 | 1.01 | 91 | 1019.8 |
| 20260901224653 | 71 | 113 | 2.0 | 3.0 | 0.00 | 1.01 | 1.01 | 91 | 1019.4 |
| 20260901224149 | 71 | 74 | 7.0 | 9.0 | 0.00 | 1.01 | 1.01 | 92 | 1019.1 |
| 20260901223644 | 71 | 85 | 2.0 | 4.0 | 0.00 | 1.01 | 1.01 | 92 | 1019.2 |
| 20260901223139 | 71 | 170 | 1.0 | 2.0 | 0.00 | 1.01 | 1.01 | 92 | 1019.5 |
| 20260901222635 | 71 | 73 | 4.0 | 6.0 | 0.00 | 1.01 | 1.01 | 92 | 1019.1 |
| 20260901222131 | 71 | 146 | 5.0 | 7.0 | 0.00 | 1.01 | 1.01 | 92 | 1019.1 |
| 20260901221627 | 72 | 149 | 6.0 | 8.0 | 0.00 | 1.01 | 1.01 | 92 | 1018.9 |
| 20260901221123 | 72 | 127 | 5.0 | 7.0 | 0.00 | 1.01 | 1.01 | 92 | 1019.0 |
| 20260901220621 | 73 | 112 | 2.0 | 3.0 | 0.00 | 1.01 | 1.01 | 92 | 1019.1 |
| 20260901220122 | 73 | 141 | 3.0 | 4.0 | 0.00 | 1.01 | 1.01 | 92 | 1019.1 |
| 20260901215620 | 73 | 146 | 5.0 | 7.0 | 0.00 | 1.01 | 1.01 | 91 | 1019.0 |
| 20260901215119 | 74 | 44 | 1.0 | 2.0 | 0.00 | 1.01 | 1.01 | 91 | 1019.1 |
| 20260901214618 | 75 | 194 | 3.0 | 4.0 | 0.00 | 1.01 | 1.01 | 91 | 1018.9 |
| 20260901214113 | 75 | 92 | 2.0 | 2.0 | 0.00 | 1.01 | 1.01 | 90 | 1019.1 |
| 20260901213612 | 75 | 143 | 1.0 | 2.0 | 0.00 | 1.01 | 1.01 | 90 | 1019.0 |
| 20260901213107 | 76 | 73 | 5.0 | 6.0 | 0.00 | 1.01 | 1.01 | 89 | 1019.1 |
| 20260901212601 | 76 | 131 | 1.0 | 2.0 | 0.00 | 1.01 | 1.01 | 89 | 1019.2 |
| 20260901212058 | 76 | 166 | 2.0 | 2.0 | 0.00 | 1.01 | 1.01 | 89 | 1019.0 |
| 20260901211553 | 76 | 96 | 4.0 | 6.0 | 0.00 | 1.01 | 1.01 | 89 | 1019.2 |
| 20260901211049 | 76 | 64 | 2.0 | 2.0 | 0.00 | 1.01 | 1.01 | 89 | 1019.0 |
| 20260901210544 | 76 | 146 | 2.0 | 3.0 | 0.00 | 1.01 | 1.01 | 89 | 1018.9 |
| 20260901210041 | 76 | 182 | 1.0 | 1.0 | 0.00 | 1.01 | 1.01 | 88 | 1018.7 |
| 20260901205535 | 77 | 158 | 2.0 | 3.0 | 0.00 | 1.01 | 1.01 | 88 | 1018.8 |
| 20260901205029 | 77 | 199 | 0.0 | 1.0 | 0.00 | 1.01 | 1.01 | 89 | 1018.6 |
| 20260901204526 | 76 | 147 | 1.0 | 2.0 | 0.00 | 1.01 | 1.01 | 89 | 1018.6 |
| 20260901204021 | 76 | 161 | 4.0 | 6.0 | 0.00 | 1.01 | 1.01 | 89 | 1018.6 |
| 20260901203521 | 76 | 121 | 2.0 | 2.0 | 0.00 | 1.01 | 1.01 | 89 | 1018.6 |
| 20260901203016 | 76 | 192 | 1.0 | 1.0 | 0.00 | 1.01 | 1.01 | 89 | 1018.5 |
| 20260901202511 | 76 | 191 | 2.0 | 2.0 | 0.00 | 1.01 | 1.01 | 89 | 1018.7 |
| 20260901202007 | 76 | 197 | 0.0 | 0.0 | 0.00 | 1.01 | 1.01 | 89 | 1018.9 |
| 20260901201502 | 77 | 200 | 1.0 | 1.0 | 0.00 | 1.01 | 1.01 | 88 | 1018.8 |
| 20260901201002 | 77 | 164 | 1.0 | 1.0 | 0.00 | 1.01 | 1.01 | 88 | 1018.8 |
| 20260901200456 | 77 | 188 | 0.0 | 0.0 | 0.00 | 1.01 | 1.01 | 87 | 1018.8 |
| 20260901195955 | 77 | 202 | 0.0 | 1.0 | 0.00 | 1.01 | 1.01 | 87 | 1019.1 |
| 20260901195454 | 77 | 182 | 1.0 | 1.0 | 0.00 | 1.01 | 1.01 | 87 | 1018.9 |
| 20260901194948 | 78 | 181 | 2.0 | 2.0 | 0.00 | 1.01 | 1.01 | 87 | 1018.8 |
| 20260901194443 | 78 | 209 | 0.0 | 0.0 | 0.00 | 1.01 | 1.01 | 86 | 1018.7 |
| 20260901193940 | 78 | 194 | 1.0 | 1.0 | 0.00 | 1.01 | 1.01 | 87 | 1018.9 |
| 20260901193434 | 78 | 201 | 0.0 | 1.0 | 0.00 | 1.01 | 1.01 | 87 | 1018.6 |
| 20260901192933 | 77 | 206 | 0.0 | 1.0 | 0.00 | 1.01 | 1.01 | 88 | 1018.8 |
| 20260901192430 | 77 | 203 | 0.0 | 0.0 | 0.00 | 1.01 | 1.01 | 89 | 1018.8 |
| 20260901191925 | 76 | 172 | 0.0 | 1.0 | 0.00 | 1.01 | 1.01 | 89 | 1018.8 |
| 20260901191422 | 76 | 208 | 0.0 | 0.0 | 0.00 | 1.01 | 1.01 | 90 | 1018.8 |
| 20260901190916 | 76 | 172 | 1.0 | 2.0 | 0.00 | 1.01 | 1.01 | 92 | 1018.8 |
| 20260901190411 | 75 | 205 | 0.0 | 0.0 | 0.00 | 1.01 | 1.01 | 93 | 1018.7 |
| 20260901185909 | 76 | 181 | 0.0 | 0.0 | 0.00 | 1.01 | 1.01 | 95 | 1018.6 |
| 20260901185409 | 75 | 179 | 0.0 | 0.0 | 0.00 | 1.01 | 1.01 | 96 | 1018.7 |
| 20260901184903 | 75 | 153 | 1.0 | 1.0 | 0.00 | 1.01 | 1.01 | 96 | 1018.5 |
| 20260901184359 | 75 | 169 | 0.0 | 0.0 | 0.00 | 1.01 | 1.01 | 96 | 1018.7 |
| 20260901183854 | 75 | 164 | 3.0 | 3.0 | 0.00 | 1.01 | 1.01 | 96 | 1018.7 |
| 20260901183353 | 75 | 176 | 2.0 | 2.0 | 0.00 | 1.01 | 1.01 | 96 | 1018.9 |
| 20260901182849 | 75 | 193 | 1.0 | 1.0 | 0.00 | 1.01 | 1.01 | 97 | 1019.0 |
| 20260901182344 | 75 | 187 | 1.0 | 1.0 | 0.00 | 1.01 | 1.01 | 97 | 1019.0 |
| 20260901181839 | 74 | 236 | 0.0 | 1.0 | 0.00 | 1.01 | 1.01 | 97 | 1019.1 |
| 20260901181333 | 74 | 165 | 0.0 | 0.0 | 0.00 | 1.01 | 1.01 | 97 | 1019.0 |
| 20260901180832 | 74 | 160 | 0.0 | 0.0 | 0.00 | 1.01 | 1.01 | 97 | 1019.1 |
| 20260901180331 | 74 | 162 | 1.0 | 1.0 | 0.00 | 1.01 | 1.01 | 97 | 1018.9 |
| 20260901175825 | 74 | 200 | 0.0 | 0.0 | 0.00 | 1.01 | 1.01 | 97 | 1019.1 |
| 20260901175319 | 74 | 187 | 1.0 | 1.0 | 0.00 | 1.01 | 1.01 | 97 | 1019.0 |
| 20260901174815 | 74 | 180 | 1.0 | 2.0 | 0.00 | 1.01 | 1.01 | 97 | 1019.0 |
| 20260901174310 | 74 | 181 | 3.0 | 3.0 | 0.00 | 1.01 | 1.01 | 97 | 1018.9 |
| 20260901173806 | 74 | 148 | 1.0 | 1.0 | 0.00 | 1.01 | 1.01 | 97 | 1019.0 |
| 20260901173306 | 74 | 154 | 2.0 | 2.0 | 0.00 | 1.01 | 1.01 | 97 | 1018.7 |
| 20260901172803 | 73 | 205 | 0.0 | 0.0 | 0.00 | 1.01 | 1.01 | 97 | 1019.1 |
| 20260901172304 | 73 | 229 | 0.0 | 0.0 | 0.00 | 1.01 | 1.01 | 97 | 1019.1 |
| 20260901171800 | 73 | 199 | 0.0 | 0.0 | 0.00 | 1.01 | 1.01 | 97 | 1019.2 |
| 20260901171259 | 73 | 213 | 0.0 | 0.0 | 0.00 | 1.01 | 1.01 | 97 | 1019.2 |
| 20260901170758 | 73 | 213 | 0.0 | 0.0 | 0.00 | 1.01 | 1.01 | 97 | 1019.1 |
| 20260901170253 | 73 | 215 | 0.0 | 0.0 | 0.00 | 1.01 | 1.01 | 97 | 1019.1 |
| 20260901165751 | 73 | 213 | 0.0 | 0.0 | 0.05 | 1.01 | 1.01 | 97 | 1019.1 |
| 20260901165247 | 72 | 179 | 0.0 | 0.0 | 0.05 | 1.01 | 1.01 | 97 | 1019.2 |
| 20260901164743 | 72 | 193 | 0.0 | 0.0 | 0.00 | 1.00 | 1.00 | 97 | 1019.2 |
| 20260901164239 | 72 | 191 | 0.0 | 1.0 | 0.00 | 1.00 | 1.00 | 97 | 1019.3 |
| 20260901163733 | 72 | 185 | 0.0 | 0.0 | 0.00 | 1.00 | 1.00 | 97 | 1019.5 |
| 20260901163233 | 72 | 204 | 0.0 | 0.0 | 0.00 | 1.00 | 1.00 | 97 | 1019.8 |
| 20260901162728 | 72 | 175 | 0.0 | 0.0 | 0.00 | 1.00 | 1.00 | 97 | 1019.7 |
| 20260901162227 | 72 | 177 | 0.0 | 0.0 | 0.00 | 1.00 | 1.00 | 97 | 1019.8 |
| 20260901161726 | 73 | 153 | 0.0 | 0.0 | 0.00 | 1.00 | 1.00 | 97 | 1019.9 |
| 20260901161221 | 72 | 146 | 1.0 | 2.0 | 0.07 | 1.00 | 1.00 | 97 | 1020.0 |
| 20260901160718 | 72 | 190 | 0.0 | 0.0 | 0.14 | 1.00 | 1.00 | 97 | 1020.0 |
| 20260901160213 | 72 | 171 | 0.0 | 0.0 | 0.19 | 0.99 | 0.99 | 97 | 1020.2 |
| 20260901155711 | 72 | 157 | 2.0 | 2.0 | 0.17 | 0.98 | 0.98 | 97 | 1020.0 |
| 20260901155207 | 72 | 225 | 0.0 | 0.0 | 0.12 | 0.96 | 0.96 | 97 | 1020.4 |
| 20260901154701 | 72 | 225 | 0.0 | 0.0 | 0.12 | 0.95 | 0.95 | 97 | 1020.5 |
| 20260901154156 | 72 | 216 | 0.0 | 0.0 | 0.12 | 0.94 | 0.94 | 97 | 1020.5 |
| 20260901153651 | 72 | 221 | 0.0 | 0.0 | 0.12 | 0.93 | 0.93 | 97 | 1020.5 |
| 20260901153146 | 72 | 224 | 0.0 | 0.0 | 0.12 | 0.92 | 0.92 | 97 | 1020.5 |
| 20260901152640 | 72 | 224 | 0.0 | 1.0 | 0.12 | 0.91 | 0.91 | 97 | 1020.5 |
| 20260901152138 | 72 | 224 | 0.0 | 0.0 | 0.05 | 0.90 | 0.90 | 97 | 1020.3 |
| 20260901151634 | 72 | 232 | 0.0 | 1.0 | 0.00 | 0.89 | 0.89 | 97 | 1020.5 |
| 20260901151133 | 71 | 159 | 2.0 | 2.0 | 0.00 | 0.89 | 0.89 | 97 | 1020.3 |
| 20260901150632 | 71 | 194 | 0.0 | 0.0 | 0.00 | 0.89 | 0.89 | 97 | 1020.5 |
| 20260901150126 | 72 | 199 | 0.0 | 0.0 | 0.07 | 0.89 | 0.89 | 97 | 1020.6 |
| 20260901145625 | 71 | 191 | 0.0 | 0.0 | 0.12 | 0.89 | 0.89 | 97 | 1020.6 |
| 20260901145124 | 71 | 168 | 1.0 | 1.0 | 0.05 | 0.88 | 0.88 | 97 | 1020.7 |
| 20260901144620 | 71 | 215 | 0.0 | 0.0 | 0.05 | 0.88 | 0.88 | 97 | 1020.5 |
| 20260901144115 | 72 | 198 | 0.0 | 0.0 | 0.00 | 0.87 | 0.87 | 97 | 1020.5 |
| 20260901143610 | 71 | 231 | 1.0 | 1.0 | 0.19 | 0.87 | 0.87 | 97 | 1020.4 |
| 20260901143106 | 71 | 151 | 2.0 | 2.0 | 0.26 | 0.87 | 0.87 | 97 | 1020.3 |
| 20260901142602 | 71 | 174 | 1.0 | 1.0 | 0.17 | 0.85 | 0.85 | 97 | 1020.6 |
| 20260901142101 | 71 | 197 | 0.0 | 0.0 | 0.05 | 0.83 | 0.83 | 97 | 1020.6 |
| 20260901141556 | 71 | 157 | 0.0 | 0.0 | 0.07 | 0.82 | 0.82 | 97 | 1021.1 |
| 20260901141051 | 71 | 186 | 0.0 | 0.0 | 0.07 | 0.82 | 0.82 | 97 | 1020.9 |
| 20260901140549 | 71 | 201 | 0.0 | 0.0 | 0.00 | 0.81 | 0.81 | 97 | 1020.8 |
| 20260901140044 | 71 | 199 | 0.0 | 0.0 | 0.00 | 0.81 | 0.81 | 97 | 1020.6 |
| 20260901135543 | 71 | 176 | 0.0 | 0.0 | 0.00 | 0.81 | 0.81 | 97 | 1020.6 |
| 20260901135038 | 71 | 197 | 0.0 | 0.0 | 0.00 | 0.81 | 0.81 | 97 | 1020.7 |
| 20260901134534 | 71 | 189 | 0.0 | 0.0 | 0.00 | 0.81 | 0.81 | 97 | 1020.5 |
| 20260901134029 | 71 | 143 | 1.0 | 1.0 | 0.00 | 0.81 | 0.81 | 97 | 1020.4 |
| 20260901133528 | 71 | 155 | 2.0 | 2.0 | 0.00 | 0.81 | 0.81 | 97 | 1020.6 |
| 20260901133026 | 71 | 184 | 0.0 | 0.0 | 0.00 | 0.81 | 0.81 | 97 | 1020.6 |
| 20260901132521 | 71 | 182 | 1.0 | 2.0 | 0.00 | 0.81 | 0.81 | 97 | 1020.3 |
| 20260901132021 | 71 | 184 | 1.0 | 1.0 | 0.00 | 0.81 | 0.81 | 97 | 1020.4 |
| 20260901131515 | 71 | 197 | 0.0 | 0.0 | 0.00 | 0.81 | 0.81 | 97 | 1020.3 |
| 20260901131010 | 71 | 170 | 1.0 | 1.0 | 0.00 | 0.81 | 0.81 | 97 | 1020.2 |
| 20260901130505 | 71 | 159 | 0.0 | 0.0 | 0.00 | 0.81 | 0.81 | 97 | 1020.2 |
| 20260901130002 | 71 | 208 | 0.0 | 0.0 | 0.00 | 0.81 | 0.81 | 97 | 1020.3 |
| 20260901125457 | 71 | 188 | 1.0 | 1.0 | 0.00 | 0.81 | 0.81 | 97 | 1020.3 |
| 20260901124957 | 71 | 190 | 0.0 | 0.0 | 0.00 | 0.81 | 0.81 | 97 | 1020.3 |
| 20260901124452 | 71 | 194 | 0.0 | 0.0 | 0.00 | 0.81 | 0.81 | 97 | 1020.3 |
| 20260901123947 | 71 | 160 | 1.0 | 2.0 | 0.00 | 0.81 | 0.81 | 97 | 1020.4 |
| 20260901123442 | 71 | 202 | 0.0 | 0.0 | 0.00 | 0.81 | 0.81 | 97 | 1020.6 |
| 20260901122940 | 70 | 168 | 0.0 | 1.0 | 0.00 | 0.81 | 0.81 | 97 | 1020.4 |
| 20260901122439 | 70 | 168 | 0.0 | 0.0 | 0.00 | 0.81 | 0.81 | 97 | 1020.7 |
| 20260901121939 | 70 | 191 | 0.0 | 0.0 | 0.00 | 0.81 | 0.81 | 97 | 1020.7 |
| 20260901121434 | 70 | 173 | 1.0 | 1.0 | 0.00 | 0.81 | 0.81 | 97 | 1020.5 |
| 20260901120929 | 70 | 199 | 0.0 | 0.0 | 0.00 | 0.81 | 0.81 | 97 | 1020.7 |
| 20260901120429 | 70 | 223 | 0.0 | 0.0 | 0.00 | 0.81 | 0.81 | 97 | 1021.0 |
| 20260901115925 | 70 | 225 | 0.0 | 0.0 | 0.00 | 0.81 | 0.81 | 97 | 1021.0 |
| 20260901115424 | 70 | 216 | 0.0 | 0.0 | 0.00 | 0.81 | 0.81 | 97 | 1020.4 |
| 20260901114922 | 70 | 216 | 0.0 | 0.0 | 0.00 | 0.81 | 0.81 | 97 | 1020.7 |
| 20260901114418 | 70 | 218 | 0.0 | 0.0 | 0.00 | 0.81 | 0.81 | 97 | 1020.6 |
| 20260901113916 | 70 | 228 | 0.0 | 0.0 | 0.00 | 0.81 | 0.81 | 97 | 1020.4 |
| 20260901113415 | 70 | 188 | 0.0 | 0.0 | 0.00 | 0.81 | 0.81 | 97 | 1020.4 |
| 20260901112910 | 70 | 200 | 0.0 | 0.0 | 0.00 | 0.81 | 0.81 | 97 | 1020.5 |
| 20260901112405 | 70 | 202 | 0.0 | 0.0 | 0.00 | 0.81 | 0.81 | 97 | 1020.5 |
| 20260901111900 | 70 | 194 | 0.0 | 0.0 | 0.00 | 0.81 | 0.81 | 97 | 1020.4 |
| 20260901111358 | 70 | 219 | 0.0 | 0.0 | 0.00 | 0.81 | 0.81 | 97 | 1020.6 |
| 20260901110857 | 70 | 220 | 0.0 | 0.0 | 0.00 | 0.81 | 0.81 | 97 | 1020.7 |
| 20260901110353 | 70 | 221 | 0.0 | 0.0 | 0.00 | 0.81 | 0.81 | 97 | 1020.6 |
| 20260901105849 | 70 | 228 | 0.0 | 0.0 | 0.00 | 0.81 | 0.81 | 97 | 1020.8 |
| 20260901105344 | 70 | 229 | 0.0 | 0.0 | 0.00 | 0.81 | 0.81 | 97 | 1020.9 |
| 20260901104840 | 69 | 192 | 0.0 | 0.0 | 0.00 | 0.81 | 0.81 | 97 | 1020.8 |
| 20260901104336 | 69 | 192 | 0.0 | 0.0 | 0.00 | 0.81 | 0.81 | 97 | 1020.8 |
| 20260901103831 | 69 | 192 | 0.0 | 0.0 | 0.00 | 0.81 | 0.81 | 97 | 1020.7 |
| 20260901103330 | 69 | 192 | 0.0 | 0.0 | 0.00 | 0.81 | 0.81 | 97 | 1020.8 |
| 20260901102825 | 69 | 192 | 0.0 | 0.0 | 0.00 | 0.81 | 0.81 | 97 | 1020.7 |
| 20260901102320 | 69 | 192 | 0.0 | 0.0 | 0.00 | 0.81 | 0.81 | 97 | 1020.5 |
| 20260901101815 | 69 | 192 | 0.0 | 0.0 | 0.00 | 0.81 | 0.81 | 97 | 1020.6 |
| 20260901101309 | 69 | 192 | 0.0 | 0.0 | 0.00 | 0.81 | 0.81 | 97 | 1020.5 |
| 20260901100809 | 69 | 191 | 0.0 | 0.0 | 0.00 | 0.81 | 0.81 | 97 | 1020.5 |
| 20260901100304 | 69 | 191 | 0.0 | 0.0 | 0.00 | 0.81 | 0.81 | 97 | 1020.4 |
| 20260901095803 | 69 | 190 | 0.0 | 0.0 | 0.00 | 0.81 | 0.81 | 97 | 1020.6 |
| 20260901095300 | 69 | 187 | 0.0 | 0.0 | 0.00 | 0.81 | 0.81 | 97 | 1020.7 |
| 20260901094754 | 69 | 227 | 0.0 | 0.0 | 0.00 | 0.81 | 0.81 | 97 | 1020.5 |
| 20260901094250 | 69 | 205 | 0.0 | 0.0 | 0.00 | 0.81 | 0.81 | 97 | 1020.4 |
| 20260901093745 | 69 | 205 | 0.0 | 0.0 | 0.00 | 0.81 | 0.81 | 97 | 1020.4 |
| 20260901093244 | 69 | 205 | 0.0 | 0.0 | 0.00 | 0.81 | 0.81 | 97 | 1020.4 |
| 20260901092740 | 69 | 204 | 0.0 | 0.0 | 0.00 | 0.81 | 0.81 | 97 | 1020.5 |
| 20260901092235 | 69 | 204 | 0.0 | 0.0 | 0.00 | 0.81 | 0.81 | 97 | 1020.7 |
| 20260901091730 | 69 | 209 | 0.0 | 0.0 | 0.00 | 0.81 | 0.81 | 97 | 1020.6 |
| 20260901091226 | 69 | 210 | 0.0 | 0.0 | 0.00 | 0.81 | 0.81 | 97 | 1020.5 |
| 20260901090720 | 69 | 207 | 0.0 | 0.0 | 0.00 | 0.81 | 0.81 | 97 | 1020.6 |
| 20260901090215 | 69 | 211 | 0.0 | 0.0 | 0.00 | 0.81 | 0.81 | 96 | 1020.8 |
| 20260901085712 | 69 | 211 | 0.0 | 0.0 | 0.00 | 0.81 | 0.81 | 96 | 1020.8 |
| 20260901085207 | 69 | 212 | 0.0 | 0.0 | 0.00 | 0.81 | 0.81 | 96 | 1020.9 |
| 20260901084703 | 69 | 207 | 0.0 | 0.0 | 0.00 | 0.81 | 0.81 | 96 | 1020.7 |
| 20260901084159 | 69 | 201 | 0.0 | 0.0 | 0.00 | 0.81 | 0.81 | 96 | 1020.8 |
| 20260901083659 | 69 | 200 | 0.0 | 0.0 | 0.00 | 0.81 | 0.81 | 96 | 1020.7 |
| 20260901083158 | 69 | 206 | 0.0 | 0.0 | 0.00 | 0.81 | 0.81 | 96 | 1020.8 |
| 20260901082652 | 69 | 185 | 0.0 | 0.0 | 0.00 | 0.81 | 0.81 | 96 | 1020.6 |
| 20260901082148 | 69 | 180 | 0.0 | 0.0 | 0.00 | 0.81 | 0.81 | 96 | 1021.0 |
| 20260901081643 | 69 | 198 | 0.0 | 0.0 | 0.00 | 0.81 | 0.81 | 96 | 1021.0 |
| 20260901081142 | 69 | 195 | 0.0 | 0.0 | 0.00 | 0.81 | 0.81 | 96 | 1021.2 |
| 20260901080638 | 69 | 188 | 0.0 | 0.0 | 0.00 | 0.81 | 0.81 | 96 | 1021.1 |
| 20260901080136 | 69 | 200 | 0.0 | 0.0 | 0.00 | 0.81 | 0.81 | 96 | 1020.9 |
| 20260901075632 | 69 | 177 | 1.0 | 1.0 | 0.00 | 0.81 | 0.81 | 96 | 1021.0 |
| 20260901075131 | 69 | 194 | 0.0 | 1.0 | 0.00 | 0.81 | 0.81 | 96 | 1020.9 |
| 20260901074631 | 69 | 177 | 1.0 | 1.0 | 0.00 | 0.81 | 0.81 | 96 | 1021.0 |
| 20260901074126 | 69 | 187 | 0.0 | 0.0 | 0.00 | 0.81 | 0.81 | 96 | 1021.2 |
| 20260901073622 | 69 | 192 | 0.0 | 0.0 | 0.00 | 0.81 | 0.81 | 96 | 1021.2 |
| 20260901073117 | 69 | 188 | 0.0 | 0.0 | 0.00 | 0.81 | 0.81 | 96 | 1021.1 |
| 20260901072613 | 69 | 197 | 0.0 | 0.0 | 0.00 | 0.81 | 0.81 | 96 | 1021.3 |
| 20260901072108 | 69 | 198 | 0.0 | 0.0 | 0.00 | 0.81 | 0.81 | 96 | 1021.4 |
| 20260901071607 | 69 | 204 | 0.0 | 0.0 | 0.00 | 0.81 | 0.81 | 96 | 1021.3 |
| 20260901071106 | 69 | 204 | 0.0 | 0.0 | 0.00 | 0.81 | 0.81 | 95 | 1021.4 |
| 20260901070555 | 69 | 184 | 1.0 | 1.0 | 0.00 | 0.81 | 0.81 | 95 | 1021.2 |
| 20260901070050 | 69 | 192 | 1.0 | 1.0 | 0.00 | 0.81 | 0.81 | 95 | 1021.3 |
| 20260901065545 | 69 | 194 | 0.0 | 0.0 | 0.05 | 0.81 | 0.81 | 95 | 1021.1 |
| 20260901065039 | 69 | 198 | 0.0 | 0.0 | 0.05 | 0.81 | 0.81 | 95 | 1021.3 |
| 20260901064537 | 69 | 187 | 2.0 | 2.0 | 0.00 | 0.80 | 0.80 | 95 | 1021.4 |
| 20260901064033 | 69 | 184 | 0.0 | 0.0 | 0.07 | 0.80 | 0.80 | 95 | 1021.5 |
| 20260901063529 | 69 | 156 | 1.0 | 1.0 | 0.19 | 0.80 | 0.80 | 95 | 1021.6 |
| 20260901063025 | 69 | 200 | 0.0 | 0.0 | 0.47 | 0.79 | 0.79 | 95 | 1021.5 |
| 20260901062520 | 69 | 207 | 0.0 | 0.0 | 0.54 | 0.78 | 0.78 | 94 | 1021.8 |
| 20260901062016 | 69 | 199 | 0.0 | 0.0 | 0.35 | 0.72 | 0.72 | 94 | 1021.8 |
| 20260901061513 | 69 | 186 | 1.0 | 1.0 | 0.24 | 0.69 | 0.69 | 94 | 1021.7 |
| 20260901061007 | 69 | 204 | 0.0 | 0.0 | 0.12 | 0.66 | 0.66 | 94 | 1021.6 |
| 20260901060502 | 69 | 169 | 1.0 | 2.0 | 0.07 | 0.65 | 0.65 | 94 | 1021.6 |
| 20260901060001 | 69 | 144 | 2.0 | 2.0 | 0.00 | 0.64 | 0.64 | 94 | 1021.8 |
| 20260901055457 | 69 | 196 | 1.0 | 2.0 | 0.19 | 0.64 | 0.64 | 94 | 1021.7 |
| 20260901054949 | 69 | 203 | 0.0 | 0.0 | 0.24 | 0.64 | 0.64 | 94 | 1021.7 |
| 20260901054446 | 69 | 184 | 0.0 | 0.0 | 0.05 | 0.61 | 0.61 | 94 | 1022.0 |
| 20260901053941 | 69 | 202 | 0.0 | 1.0 | 0.24 | 0.60 | 0.60 | 94 | 1021.9 |
| 20260901053436 | 69 | 154 | 1.0 | 2.0 | 0.78 | 0.60 | 0.60 | 94 | 1021.8 |
| 20260901052931 | 69 | 199 | 0.0 | 0.0 | 0.78 | 0.58 | 0.58 | 93 | 1022.0 |
| 20260901052426 | 69 | 226 | 0.0 | 1.0 | 0.28 | 0.48 | 0.48 | 93 | 1022.0 |
| 20260901051925 | 69 | 216 | 1.0 | 2.0 | 0.47 | 0.45 | 0.45 | 93 | 1022.1 |
| 20260901051421 | 69 | 203 | 0.0 | 0.0 | 0.61 | 0.43 | 0.43 | 93 | 1022.0 |
| 20260901050915 | 69 | 214 | 0.0 | 0.0 | 0.71 | 0.38 | 0.38 | 93 | 1022.3 |
| 20260901050411 | 69 | 216 | 0.0 | 0.0 | 0.73 | 0.32 | 0.32 | 92 | 1022.4 |
| 20260901045906 | 70 | 211 | 0.0 | 0.0 | 0.35 | 0.25 | 0.25 | 92 | 1022.4 |